[[{"header":{"parameterUnit":"m.s-1","parameterCategory":1,"la1":30.2991,"la2":30.254,"lo1":-89.0895,"lo2":-89.0444,"dy":0.0017,"dx":0.0017,"nx":28,"ny":28,"refTime":"2024-07-21T09:00:00:Z","depth":0,"parameterNumber":2,"parameterNumberName":"U-component_of_WINDS"},"data":[0,0,0,0,0,0,0,0,0,0,0,0,0,0,0,0,0,0,0,0,0,0,0,0,0,0,0,0,0,0,0,0,0,0,0,0,0,0,0,0,0,0,0,0,0,0,0,0,0,0,0,0,0,0,0,0,0,0,1.5145,1.5146,0,1.5252,1.5254,1.5255,1.5298,1.5298,1.5298,1.5298,1.5406,1.5409,1.5412,0,0,0,0,0,0,0,0,0,0,0,0,0,1.4976,1.4978,1.5145,1.5147,1.5148,1.5252,1.5254,1.5255,1.5298,1.5298,1.5298,1.5298,1.5405,1.5408,1.5412,0,0,0,0,0,0,0,0,0,0,0,0,0,1.5063,1.4979,1.5145,1.5182,1.5187,1.5252,1.5254,1.5256,1.5298,1.5298,1.5298,1.5297,1.5404,1.5408,1.5413,1.5449,0,0,1.5427,1.5429,0,0,0,0,0,0,0,0,1.5058,1.5069,1.5175,1.518,1.5185,1.5262,1.5234,1.532,1.5299,1.5256,1.5298,1.5297,1.5358,1.5366,1.5387,1.5454,1.5458,1.5427,1.543,1.5432,1.5434,0,0,0,0,0,0,0,1.5051,1.5064,1.5188,1.5177,1.5183,1.5193,1.5205,1.525,1.5308,1.526,1.5263,1.5275,1.5361,1.5383,1.539,1.546,1.5427,1.5431,1.5434,1.5436,1.556,1.5561,0,0,0,0,0,0,1.504,1.5059,1.5184,1.5191,1.5119,1.5196,1.5209,1.5237,1.5307,1.5318,1.5275,1.5277,1.5375,1.5385,1.5394,1.544,1.5432,1.5437,1.5439,1.556,1.556,1.5561,0,0,0,0,0,0,1.5036,1.505,1.518,1.5126,1.5143,1.5199,1.523,1.524,1.5262,1.5319,1.533,1.5288,1.5375,1.5388,1.5435,1.5445,1.5439,1.5443,1.5559,1.556,1.5561,1.5533,0,0,0,0,0,0,1.5031,1.5049,1.5064,1.5126,1.5146,1.5219,1.5231,1.5242,1.527,1.5273,1.5333,1.5343,1.5376,1.5428,1.5439,1.5451,1.5447,1.5559,1.556,1.556,1.5534,1.5533,1.5533,0,0,0,0,0,1.5025,1.5052,1.5064,1.5079,1.5166,1.522,1.5231,1.5269,1.5271,1.5286,1.5322,1.5341,1.5442,1.5432,1.5446,1.5459,1.5558,1.5559,1.556,1.5534,1.5533,1.5533,0,0,0,0,0,0,1.4989,1.5061,1.5075,1.5124,1.5165,1.5227,1.5247,1.5267,1.5309,1.5309,1.5353,1.5367,1.541,1.5439,1.5427,1.5497,1.5501,1.5505,1.5476,1.5476,1.5476,1.5468,1.545,0,0,0,0,0,1.4986,1.5025,1.5085,1.5122,1.5142,1.5191,1.5216,1.5241,1.5286,1.5304,1.5344,1.5386,1.5427,1.5453,1.5494,1.5538,1.5551,1.5554,1.5553,1.5552,1.5555,1.558,1.5581,1.5565,1.5565,1.5565,0,0,1.4982,1.5026,1.5048,1.5116,1.5151,1.5189,1.5206,1.5246,1.5274,1.531,1.5357,1.5387,1.5437,1.5482,1.5504,1.5508,1.5563,1.5554,1.5553,1.5556,1.5581,1.5582,1.5584,1.5565,1.5565,1.5565,0,0,1.4994,1.5031,1.5066,1.5101,1.5154,1.5186,1.5194,1.5253,1.5275,1.5323,1.535,1.5384,1.5454,1.5488,1.5515,1.5538,1.5556,1.555,1.5547,1.557,1.5572,1.5573,1.5581,1.5583,1.5552,1.5552,1.5552,0,1.4982,1.5041,1.5081,1.5119,1.5148,1.5182,1.5216,1.5248,1.5311,1.533,1.5333,1.5421,1.5457,1.5511,1.5516,1.5537,1.5547,1.5543,1.5569,1.557,1.5572,1.558,1.5583,1.5551,1.5551,1.5551,1.5552,0,1.5023,1.5064,1.5085,1.5146,1.5177,1.5213,1.5257,1.5283,1.5305,1.5336,1.5384,1.5428,1.5479,1.5493,1.5515,1.5549,1.555,1.556,1.5565,1.5572,1.558,1.5583,1.5549,1.555,1.555,1.5551,0,0,1.5016,1.5098,1.5105,1.5133,1.5193,1.5225,1.5262,1.5311,1.5333,1.5375,1.5407,1.5465,1.5474,1.5504,1.553,1.555,1.5565,1.5558,1.556,1.5558,1.5605,1.5597,1.56,1.5578,1.5578,1.5579,1.5601,0,1.5036,1.5105,1.5141,1.5194,1.5231,1.5263,1.5295,1.5335,1.5365,1.5401,1.5433,1.5474,1.5484,1.5502,1.5523,1.5559,1.5575,1.5558,1.5607,1.5608,1.5594,1.5604,1.5596,1.5614,1.5604,1.5605,1.5605,0,1.5068,1.511,1.5167,1.5223,1.524,1.5268,1.5316,1.5349,1.5395,1.5415,1.5448,1.5473,1.5513,1.5514,1.5569,1.5556,1.5578,1.5598,1.56,1.5606,1.5607,1.561,1.5621,1.5624,1.5611,1.561,1.561,0,1.5057,1.5128,1.5171,1.5193,1.526,1.5278,1.5307,1.5352,1.5379,1.542,1.5438,1.5483,1.5508,1.5542,1.5578,1.5576,1.5628,1.5633,1.5646,1.5645,1.5655,1.5654,1.567,1.5669,1.5669,1.5669,1.5669,0,1.5075,1.5108,1.5166,1.5193,1.5231,1.5271,1.5307,1.5338,1.5378,1.541,1.544,1.547,1.5516,1.5551,1.5579,1.5619,1.563,1.5647,1.5654,1.5645,1.5642,1.566,1.5659,1.567,1.567,1.567,1.567,0,1.5069,1.5109,1.5158,1.5217,1.5232,1.5257,1.5307,1.5333,1.5364,1.5404,1.5416,1.5465,1.5507,1.5547,1.5603,1.5622,1.5663,1.5672,1.5647,1.5651,1.5661,1.566,1.5689,1.5694,1.569,1.569,1.569,0,1.5078,1.5105,1.5166,1.519,1.5217,1.5256,1.5283,1.5324,1.5351,1.5404,1.5424,1.5469,1.5507,1.5573,1.5613,1.5656,1.5666,1.5673,1.5673,1.5662,1.5666,1.5664,1.5667,1.5673,1.5673,1.5673,1.5672,0,1.509,1.5108,1.5147,1.5193,1.5225,1.5263,1.5302,1.532,1.5367,1.5396,1.544,1.547,1.5527,1.5571,1.5619,1.5647,1.5667,1.5672,1.5677,1.5668,1.5652,1.5661,1.5646,1.5671,1.5672,1.5672,1.5672,1.5672,1.5091,1.5116,1.5163,1.5205,1.5239,1.5274,1.5301,1.5336,1.5373,1.5424,1.5445,1.5489,1.5533,1.5599,1.5627,1.5662,1.5666,1.5674,1.5676,1.5677,1.5675,1.5646,1.567,1.5671,1.5671,1.5671,1.5671,0,1.5104,1.5136,1.5174,1.5228,1.5261,1.5277,1.5321,1.5347,1.5386,1.5425,1.5462,1.5512,1.5554,1.5597,1.5642,1.5661,1.5672,1.5671,1.567,1.5677,1.5668,1.5659,1.5662,1.5662,1.5662,1.5662,1.5662,1.5662,1.5115,1.5158,1.5181,1.524,1.5271,1.5315,1.5339,1.5371,1.5403,1.5457,1.5493,1.5521,1.5561,1.5609,1.5648,1.5659,1.5674,1.5671,1.5685,1.5677,1.5677,1.5678,1.5669,1.5674,1.5674,1.5691,1.5691,1.5691]},{"header":{"parameterUnit":"m.s-1","parameterCategory":1,"la1":30.2991,"la2":30.254,"lo1":-89.0895,"lo2":-89.0444,"dy":0.0017,"dx":0.0017,"nx":28,"ny":28,"refTime":"2024-07-21T09:00:00:Z","depth":0,"parameterNumber":3,"parameterNumberName":"V-component_of_WINDS"},"data":[0,0,0,0,0,0,0,0,0,0,0,0,0,0,0,0,0,0,0,0,0,0,0,0,0,0,0,0,0,0,0,0,0,0,0,0,0,0,0,0,0,0,0,0,0,0,0,0,0,0,0,0,0,0,0,0,0,0,3.7661,3.7661,0,3.7696,3.7697,3.7697,3.7682,3.7681,3.768,3.7679,3.7711,3.7712,3.7714,0,0,0,0,0,0,0,0,0,0,0,0,0,3.7575,3.7577,3.7661,3.7661,3.7662,3.7696,3.7697,3.7697,3.7682,3.7681,3.768,3.7679,3.771,3.7712,3.7714,0,0,0,0,0,0,0,0,0,0,0,0,0,3.7612,3.7578,3.7661,3.7658,3.7658,3.7696,3.7697,3.7697,3.7682,3.7681,3.7679,3.7678,3.771,3.7712,3.7715,3.7755,0,0,3.7722,3.7723,0,0,0,0,0,0,0,0,3.761,3.7615,3.7658,3.7659,3.7659,3.7683,3.7678,3.7716,3.7682,3.7673,3.7679,3.7678,3.7702,3.7705,3.7715,3.7757,3.7758,3.7722,3.7724,3.7725,3.7726,0,0,0,0,0,0,0,3.7607,3.7613,3.7675,3.7659,3.7659,3.7654,3.7658,3.7685,3.7694,3.7674,3.7673,3.7677,3.7702,3.7712,3.7715,3.7759,3.7722,3.7724,3.7726,3.7727,3.7835,3.7836,0,0,0,0,0,0,3.7605,3.7611,3.7673,3.7676,3.7631,3.7656,3.7661,3.7677,3.7694,3.7695,3.7678,3.7676,3.7709,3.7712,3.7716,3.7765,3.7725,3.7727,3.7729,3.7834,3.7835,3.7837,0,0,0,0,0,0,3.7604,3.7611,3.7672,3.7643,3.7651,3.7659,3.7677,3.7678,3.7688,3.7698,3.7699,3.7687,3.7708,3.7713,3.7746,3.7766,3.7728,3.773,3.7832,3.7834,3.7836,3.7863,0,0,0,0,0,0,3.7601,3.761,3.7627,3.7644,3.7652,3.7702,3.7679,3.768,3.7693,3.7691,3.7706,3.7707,3.7707,3.7742,3.7748,3.7769,3.7732,3.783,3.7833,3.7836,3.786,3.7865,3.787,0,0,0,0,0,3.7598,3.7632,3.7628,3.7636,3.7673,3.7704,3.7708,3.7709,3.7695,3.7711,3.7717,3.7707,3.7763,3.7746,3.7752,3.7774,3.7829,3.7832,3.7835,3.7858,3.7864,3.787,0,0,0,0,0,0,3.7616,3.7634,3.763,3.7671,3.7686,3.7701,3.7721,3.7716,3.7734,3.7731,3.7729,3.7733,3.7767,3.7774,3.7754,3.7814,3.7794,3.7798,3.7808,3.7815,3.7819,3.7817,3.7734,0,0,0,0,0,3.7625,3.7649,3.7663,3.7698,3.7706,3.7713,3.7726,3.7725,3.774,3.7746,3.7754,3.7768,3.7788,3.7802,3.7821,3.7861,3.7863,3.7879,3.7884,3.7888,3.7892,3.7912,3.7919,3.7847,3.7847,3.7847,0,0,3.7643,3.7656,3.7671,3.7702,3.7714,3.7738,3.7718,3.7744,3.7761,3.7749,3.7781,3.7788,3.7803,3.7839,3.7856,3.7846,3.7912,3.7892,3.7895,3.7897,3.7916,3.7923,3.7929,3.7849,3.7849,3.7849,0,0,3.7689,3.7701,3.7732,3.7744,3.7762,3.7767,3.7774,3.779,3.7794,3.7827,3.7818,3.7838,3.7873,3.7885,3.7895,3.7945,3.7936,3.7951,3.7977,3.7997,3.8003,3.8008,3.8025,3.8031,3.7955,3.7955,3.7955,0,3.7708,3.7746,3.7747,3.7775,3.7788,3.7779,3.7809,3.782,3.7844,3.7852,3.7841,3.7886,3.7895,3.7934,3.7946,3.7955,3.7962,3.7949,3.8002,3.8007,3.8012,3.8028,3.8035,3.7956,3.7956,3.7956,3.7956,0,3.7769,3.7795,3.7817,3.7841,3.7857,3.7885,3.7889,3.7905,3.7903,3.7907,3.794,3.7951,3.7973,3.7982,3.7979,3.802,3.8014,3.8002,3.7982,3.802,3.8036,3.8042,3.7959,3.7958,3.7958,3.7957,0,0,3.7826,3.7852,3.786,3.7871,3.789,3.791,3.7937,3.796,3.7973,3.7989,3.8011,3.8041,3.8031,3.8043,3.8042,3.806,3.8098,3.8046,3.8046,3.8055,3.8143,3.8151,3.8158,3.8093,3.8094,3.8095,3.8141,0,3.7873,3.7923,3.7925,3.797,3.7993,3.7985,3.8009,3.8023,3.8028,3.8047,3.8052,3.8074,3.8059,3.8066,3.8084,3.8089,3.8115,3.8086,3.8112,3.8113,3.8108,3.8166,3.8175,3.8218,3.8147,3.8148,3.8149,0,3.7934,3.7954,3.8002,3.8018,3.8028,3.8049,3.807,3.8089,3.8104,3.8107,3.812,3.8116,3.8143,3.8122,3.8158,3.8138,3.8148,3.8153,3.8154,3.8156,3.8133,3.8169,3.8232,3.8239,3.8159,3.8158,3.8157,0,3.7971,3.8009,3.8043,3.8052,3.8072,3.8087,3.8096,3.811,3.8124,3.8141,3.815,3.817,3.818,3.8195,3.8196,3.8181,3.8232,3.8211,3.8234,3.8234,3.8244,3.8244,3.831,3.8252,3.8252,3.8252,3.8252,0,3.8022,3.8052,3.8059,3.808,3.8112,3.8113,3.8145,3.8152,3.8165,3.8185,3.8179,3.8198,3.8199,3.8218,3.8219,3.8248,3.8253,3.8255,3.8254,3.8255,3.8255,3.8262,3.8258,3.8254,3.8253,3.8253,3.8253,0,3.8068,3.8075,3.8111,3.8128,3.8132,3.8155,3.8169,3.8187,3.8192,3.8218,3.8225,3.8232,3.8254,3.8257,3.8282,3.8283,3.8318,3.8314,3.8313,3.8312,3.8334,3.8332,3.8407,3.8416,3.8353,3.8354,3.8354,0,3.8101,3.8124,3.8143,3.8157,3.8167,3.819,3.8204,3.8206,3.8221,3.824,3.8256,3.8278,3.8296,3.8332,3.8338,3.8357,3.8354,3.8379,3.8357,3.8357,3.8354,3.8353,3.8354,3.8383,3.8384,3.8384,3.8385,0,3.8158,3.816,3.8181,3.8204,3.8221,3.8238,3.8254,3.8266,3.827,3.8286,3.831,3.8324,3.8351,3.8372,3.8391,3.8399,3.8392,3.8392,3.8398,3.8398,3.8397,3.8397,3.8324,3.839,3.8389,3.8389,3.8389,3.8388,3.8198,3.8217,3.8234,3.8258,3.8271,3.8286,3.8305,3.8312,3.8333,3.8356,3.8355,3.8381,3.8395,3.842,3.8429,3.8448,3.844,3.8449,3.8451,3.8453,3.8455,3.8394,3.8452,3.8451,3.8451,3.8451,3.8451,0,3.8253,3.8264,3.8286,3.831,3.8328,3.8322,3.834,3.8355,3.8378,3.8393,3.8411,3.8437,3.8458,3.8467,3.8487,3.8501,3.8498,3.8506,3.8504,3.8506,3.8462,3.8454,3.8508,3.8508,3.8508,3.8508,3.8507,3.8507,3.8285,3.8318,3.8322,3.8361,3.8371,3.8397,3.8408,3.8421,3.8433,3.8463,3.8481,3.8487,3.8499,3.852,3.8538,3.854,3.8547,3.8557,3.8557,3.8515,3.8509,3.8504,3.8497,3.8558,3.8558,3.86,3.86,3.86]}]]